This demonstration page uses our WeatherBlox Daily Observations layout. Learn more.

Left ArrowRight Arrow

39.92423, -83.80882

Hourly Observations for August 23, 2016

Temp ( °F °C ) Dew Point ( °F °C ) Humidity (%) Winds ( mph kmh ) Pressure ( in mb ) Visibility ( mi km ) Precip ( " mm )
12:56 am 00:56 Clear 57 13.9 56 13.3 96 96 N N/A 30.25 1024 10 16 N/A
1:56 am 01:56 Clear 57 13.9 56 13.3 96 96 N N/A 30.26 1025 10 16 N/A
2:56 am 02:56 Clear 56 13.3 55 12.8 97 97 N N/A 30.26 1025 10 16 N/A
3:56 am 03:56 Clear 54 12.2 54 12.2 100 100 E 3 6 30.27 1025 10 16 N/A
4:56 am 04:56 Clear 54 12.2 53 11.7 97 97 ESE 3 6 30.27 1025 10 16 N/A
5:56 am 05:56 Clear 53 11.7 53 11.7 100 100 E 5 7 30.28 1025 10 16 N/A
6:56 am 06:56 Sunny 54 12.2 53 11.7 97 97 E 3 6 N/A 10 16 N/A
7:56 am 07:56 Sunny 57 13.9 56 13.3 96 96 N N/A 30.30 1026 10 16 N/A
8:56 am 08:56 Sunny 65 18.3 59 15 81 81 SE 6 9 30.31 1026 10 16 N/A
9:56 am 09:56 Sunny 71 21.7 62 16.7 73 73 undefined N/A N/A 10 16 N/A
10:56 am 10:56 Sunny 73 22.8 61 16.1 66 66 S 6 9 30.32 1027 10 16 N/A
11:56 am 11:56 Sunny 76 24.4 61 16.1 60 60 VRB 5 7 30.32 1027 10 16 N/A
12:56 pm 12:56 Partly Cloudy 76 24.4 60 15.6 58 58 SSE 6 9 30.30 1026 10 16 N/A
1:56 pm 13:56 Mostly Cloudy 77 25 62 16.7 60 60 SSW 6 9 30.29 1026 10 16 N/A
2:56 pm 14:56 Partly Cloudy 78 25.6 61 16.1 56 56 SSW 6 9 30.27 1025 10 16 N/A
3:56 pm 15:56 Mostly Cloudy 78 25.6 63 17.2 60 60 SSE 9 15 30.26 1025 10 16 N/A
4:56 pm 16:56 Mostly Sunny 78 25.6 62 16.7 58 58 S 8 13 30.24 1024 10 16 N/A
5:56 pm 17:56 Mostly Sunny 78 25.6 62 16.7 58 58 SSE 8 13 30.24 1024 10 16 N/A
6:56 pm 18:56 Mostly Sunny 75 23.9 62 16.7 64 64 S 3 6 30.24 1024 10 16 N/A
7:56 pm 19:56 Sunny 71 21.7 62 16.7 73 73 SSE 5 7 N/A 10 16 N/A
8:56 pm 20:56 Clear 70 21.1 61 16.1 73 73 S 3 6 30.24 1024 10 16 N/A
9:56 pm 21:56 Clear 66 18.9 61 16.1 84 84 SE 5 7 30.24 1024 10 16 N/A
10:56 pm 22:56 Clear 65 18.3 61 16.1 87 87 SE 5 7 N/A 10 16 N/A
11:56 pm 23:56 Clear 64 17.8 60 15.6 87 87 SE 7 11 30.22 1023 10 16 N/A

Powered by AerisWeather